Wind_Speed
35 37 37 37 36 36 37 37 35 34 34 35 35 36 41 40 38 37 37 37 38 39 39 39 37 33 35 36 32 34 32 33 32 32 32 33 34 35 34 32 26 24 26 21
36 36 36 38 39 38 38 38 39 38 35 34 33 33 36 39 39 38 38 40 41 40 40 38 34 30 31 33 34 33 35 36 32 32 33 32 35 36 36 33 26 25 24 15
37 39 39 39 38 38 38 39 39 40 39 36 33 35 35 39 41 41 41 41 41 41 40 38 36 29 28 25 23 24 28 30 32 31 26 28 32 33 36 34 27 20 17 10
38 37 37 43 43 41 40 39 38 39 38 39 37 33 37 36 40 41 42 41 41 41 40 39 36 30 27 25 22 23 24 24 29 29 24 29 32 31 34 32 25 26 19 11
31 34 35 36 42 46 45 43 40 39 38 39 40 40 35 39 38 43 43 39 40 41 40 39 38 32 28 23 19 24 23 20 25 24 24 33 34 34 30 30 25 28 24 18
28 30 29 29 33 39 44 45 44 43 42 41 41 41 40 36 39 39 42 41 42 43 38 40 37 34 27 22 17 20 22 22 22 20 23 29 36 38 29 29 27 22 24 19
25 24 25 24 25 30 38 43 44 44 42 43 43 42 41 40 39 40 41 43 43 40 42 42 42 37 31 27 24 22 16 19 19 21 17 21 27 33 38 29 20 22 20 17
23 22 23 26 27 28 30 37 40 42 43 43 43 43 42 41 41 40 40 42 43 43 45 46 44 43 39 33 32 26 26 24 24 25 24 23 21 29 37 32 24 22 21 18
24 24 23 23 24 23 24 28 33 34 37 42 43 42 42 41 42 42 42 41 44 43 44 50 47 42 40 39 35 34 33 32 31 31 31 27 27 25 27 27 32 23 21 23
19 22 25 25 25 24 23 23 25 29 31 35 40 42 42 42 43 42 42 42 43 44 45 46 46 46 45 45 43 42 38 35 33 34 35 30 27 28 26 28 29 31 29 28
16 18 22 26 28 26 25 24 25 26 28 31 35 40 43 42 43 43 44 43 43 44 44 45 47 44 43 43 43 46 44 39 36 35 39 36 29 30 31 28 28 30 30 25
15 16 17 20 24 27 28 26 25 27 28 30 33 38 41 42 42 41 44 45 43 44 43 44 45 45 43 40 38 38 43 39 39 38 37 31 26 24 25 25 24 22 22 24
11 14 17 18 18 19 24 28 29 27 28 29 32 35 38 40 42 41 44 46 44 41 40 40 42 43 41 40 39 38 41 45 41 37 36 32 32 31 28 25 28 29 27 26
11 11 13 15 17 19 21 25 27 28 27 29 30 31 35 39 43 43 45 45 45 41 39 38 37 36 35 35 35 38 40 42 40 38 36 33 32 30 28 27 25 24 26 29
6 8 8 11 14 17 20 23 25 27 29 28 30 29 32 37 41 45 46 44 45 43 39 37 36 33 31 32 33 36 40 44 44 39 39 35 31 29 31 33 31 29 26 27
6 3 3 4 7 11 17 21 24 27 29 29 29 31 30 34 39 43 46 44 43 42 41 39 36 32 32 31 33 34 36 43 45 44 40 36 33 33 35 33 32 32 31 36
7 3 2 3 6 9 13 17 21 25 27 28 30 30 29 31 35 40 42 43 40 40 39 40 38 36 35 32 31 32 32 34 41 42 41 42 39 37 37 39 39 42 34 34
12 8 5 6 7 9 10 13 20 23 25 28 30 30 30 32 34 36 39 41 41 36 33 34 35 37 38 38 35 33 32 32 34 38 39 42 42 40 37 33 36 31 31 35
8 12 12 12 11 11 12 12 14 21 26 26 28 28 28 32 35 36 36 38 41 37 33 28 32 37 38 34 33 36 34 33 34 32 33 34 34 35 34 35 37 38 40 39
10 12 9 8 11 10 6 10 10 15 21 25 27 27 29 31 34 36 36 35 36 36 33 34 30 33 33 32 31 33 34 31 30 33 33 32 32 31 32 33 31 33 33 35
11 6 7 10 8 8 5 11 8 11 18 20 22 27 28 31 33 35 34 35 36 39 36 27 31 27 30 26 26 26 28 30 31 31 32 33 33 34 38 41 42 44 47 49
12 8 11 11 12 7 10 12 10 10 16 19 20 21 25 30 32 33 33 33 33 34 37 35 30 28 26 26 32 25 25 24 27 34 36 36 36 38 40 42 44 45 47 49
16 12 12 11 14 17 17 21 18 13 14 17 20 22 23 27 32 30 28 30 31 33 33 31 31 37 32 26 22 22 19 23 28 21 24 26 27 31 34 38 42 47 49 49
24 15 12 12 13 15 15 16 20 14 8 5 12 20 19 22 26 27 25 22 30 34 33 33 32 30 30 27 25 23 24 25 27 28 28 31 34 35 36 37 38 38 41 45
25 24 22 13 4 5 9 12 12 9 9 12 15 14 18 21 19 18 25 24 26 30 29 26 26 26 27 27 25 24 27 29 29 29 30 33 35 37 39 37 32 32 33 34
27 28 25 21 17 9 7 10 10 10 15 18 15 15 22 24 21 12 15 19 20 24 26 25 24 24 24 25 26 26 26 26 26 27 28 30 33 34 33 28 27 29 32 34
23 27 26 23 19 14 11 10 10 13 12 11 11 16 11 13 13 9 10 9 13 21 25 25 25 24 24 25 25 24 23 23 23 25 26 26 23 24 25 26 29 32 33 34
Wind_Direction
251 246 244 242 242 240 239 238 236 235 234 235 234 230 228 229 228 227 225 224 228 231 234 236 237 239 238 241 239 242 239 243 240 243 246 246 243 245 247 252 259 260 271 283
252 249 245 242 239 237 236 235 235 235 235 234 233 229 227 226 226 225 223 224 224 226 229 232 236 237 243 248 253 256 247 249 241 242 243 245 246 242 245 248 245 252 270 280
252 248 245 242 238 236 234 233 233 233 234 233 232 230 227 225 225 224 224 223 225 227 226 226 227 224 234 241 244 245 242 235 236 241 243 245 241 236 241 248 240 249 253 262
252 248 246 241 238 236 234 234 233 232 232 232 231 231 227 224 225 227 227 226 227 228 230 229 228 220 222 230 242 235 242 243 237 235 230 225 228 231 238 245 248 235 238 230
251 247 246 244 238 235 235 234 233 233 231 230 229 229 229 224 221 224 228 225 227 228 230 234 235 232 223 222 224 224 238 242 232 221 217 214 220 221 235 246 245 236 240 224
247 245 243 243 239 235 233 233 232 232 230 229 227 227 226 228 225 222 225 222 223 227 226 226 230 232 226 224 229 225 234 237 220 203 206 208 219 222 230 243 253 243 230 236
239 237 235 238 240 239 234 230 230 230 229 227 227 227 224 224 223 221 222 222 224 223 225 221 223 230 227 224 225 234 228 225 220 207 205 216 217 224 231 237 239 247 236 243
246 241 241 241 238 235 234 231 228 227 226 226 226 225 223 221 220 218 219 219 221 220 221 224 223 223 224 225 233 230 231 225 236 233 218 222 227 243 236 225 227 231 232 246
242 243 241 236 230 230 230 228 227 226 224 224 223 222 222 220 219 215 214 217 218 218 219 222 228 227 229 227 227 232 232 238 243 237 232 231 233 244 257 250 235 234 241 244
249 243 238 234 230 228 228 227 226 226 225 223 222 220 220 217 217 214 212 213 216 217 221 223 227 229 228 229 228 230 236 242 245 239 233 247 259 248 250 255 249 246 248 252
256 248 240 236 233 229 228 227 227 228 229 225 222 220 218 215 214 211 209 210 213 216 219 222 227 229 230 232 233 234 239 234 235 233 238 248 249 252 251 259 252 243 243 246
261 252 243 238 234 231 228 228 227 227 228 227 222 220 217 213 209 206 207 210 213 215 218 222 226 228 228 228 231 230 222 226 233 237 245 249 249 254 260 255 249 242 243 247
266 254 247 239 233 230 226 224 225 225 225 226 221 217 214 209 206 201 204 207 211 215 218 223 227 231 231 229 227 228 225 225 232 234 240 247 252 255 249 242 247 250 252 253
274 259 249 242 236 230 224 222 221 220 222 221 220 214 210 205 205 200 203 205 209 212 217 220 224 228 229 231 230 227 226 226 226 231 235 241 249 246 243 241 241 247 250 256
303 275 259 243 234 228 224 222 219 218 218 216 214 209 206 204 203 202 204 207 209 210 214 219 222 224 224 226 227 227 225 225 226 228 232 236 237 243 247 242 247 248 250 252
350 334 279 246 231 222 220 218 217 214 216 214 210 207 202 202 204 204 206 208 210 211 213 217 221 220 222 225 225 226 229 227 229 231 235 239 238 238 245 248 247 252 257 258
39 28 334 289 271 254 235 223 215 213 213 210 209 207 201 201 206 207 208 210 211 213 214 214 216 223 226 223 224 227 229 230 231 233 237 241 244 244 248 252 258 265 254 262
17 12 3 346 310 268 247 232 221 214 210 208 207 206 203 201 205 207 208 209 210 208 213 216 213 216 223 225 222 224 227 228 232 236 239 243 247 255 256 255 264 263 266 270
5 7 5 355 324 303 249 229 215 210 209 206 203 202 200 201 205 208 209 210 213 214 207 206 213 214 219 222 225 225 229 231 232 233 234 238 243 247 253 256 264 268 266 270
345 350 358 6 349 313 236 201 193 195 198 198 199 199 198 200 204 208 208 207 213 206 212 215 213 209 215 220 223 224 225 230 235 238 242 246 249 256 262 266 266 267 268 272
7 19 27 26 21 27 136 173 170 177 184 188 192 197 198 199 205 210 209 207 210 207 211 212 218 206 213 218 220 223 226 231 235 242 249 255 260 263 264 265 267 270 273 275
31 54 51 47 44 58 116 136 147 165 177 182 184 190 194 200 205 211 209 211 209 211 208 215 219 221 230 217 218 224 229 235 243 245 248 254 260 263 266 269 270 271 272 274
37 66 71 78 74 72 91 92 107 122 156 179 189 197 194 196 201 206 209 212 211 211 212 199 189 212 231 238 242 242 250 244 250 254 250 256 263 267 269 270 270 269 269 271
42 54 79 76 91 90 93 106 107 100 135 149 170 195 189 190 194 199 193 200 207 212 215 219 229 231 235 239 245 247 253 256 257 261 260 262 266 268 273 276 279 280 280 277
49 54 61 65 65 88 121 119 136 118 84 143 130 148 168 168 177 181 196 209 213 207 212 214 219 224 230 234 238 245 249 251 255 259 263 266 267 267 272 273 276 283 284 284
44 51 55 63 69 74 73 101 100 86 83 70 122 134 161 162 175 184 188 194 207 206 210 212 218 224 228 232 242 248 250 253 256 258 263 270 270 271 269 270 280 284 287 289
39 46 47 52 58 68 79 89 98 105 111 121 116 137 148 126 172 174 184 188 198 195 198 204 211 218 223 230 237 244 249 253 259 264 265 266 270 274 281 285 285 288 291 294
Height
5764 5767 5770 5773 5777 5780 5784 5787 5792 5796 5799 5803 5808 5814 5819 5824 5830 5835 5841 5846 5851 5856 5861 5866 5872 5878 5880 5885 5889 5894 5897 5900 5903 5907 5909 5912 5913 5915 5917 5920 5924 5925 5925 5928
5753 5756 5759 5762 5766 5770 5774 5777 5782 5787 5791 5795 5801 5806 5810 5815 5821 5826 5832 5837 5842 5848 5854 5861 5866 5871 5875 5878 5883 5887 5889 5893 5896 5899 5903 5905 5908 5910 5913 5916 5920 5921 5923 5926
5741 5744 5748 5751 5755 5759 5763 5768 5772 5777 5782 5787 5792 5797 5802 5808 5812 5818 5824 5830 5835 5842 5848 5853 5859 5865 5868 5873 5877 5880 5882 5887 5890 5893 5898 5901 5903 5906 5907 5910 5914 5918 5920 5921
5730 5732 5735 5739 5743 5747 5753 5758 5763 5768 5773 5778 5784 5789 5794 5800 5805 5811 5817 5823 5829 5834 5839 5846 5853 5859 5864 5869 5872 5874 5878 5883 5885 5887 5891 5894 5897 5900 5902 5905 5909 5913 5918 5918
5719 5721 5724 5726 5730 5735 5741 5747 5753 5758 5763 5768 5773 5780 5786 5791 5797 5803 5809 5818 5822 5827 5833 5840 5847 5853 5860 5864 5868 5870 5874 5879 5880 5882 5885 5887 5891 5895 5898 5901 5904 5908 5912 5914
5708 5710 5713 5716 5719 5723 5728 5735 5741 5746 5752 5757 5764 5770 5777 5784 5790 5796 5802 5809 5813 5819 5831 5833 5840 5845 5852 5858 5863 5867 5871 5873 5877 5879 5880 5882 5885 5890 5894 5896 5899 5903 5907 5909
5700 5702 5705 5708 5710 5714 5718 5723 5729 5735 5741 5747 5753 5760 5768 5774 5780 5787 5792 5799 5806 5818 5821 5827 5833 5840 5846 5852 5857 5862 5866 5870 5873 5875 5876 5877 5881 5885 5888 5892 5896 5899 5902 5904
5692 5694 5697 5700 5702 5705 5709 5713 5718 5724 5730 5736 5743 5750 5758 5764 5771 5778 5784 5791 5799 5806 5813 5819 5826 5833 5840 5846 5851 5856 5862 5865 5868 5870 5871 5873 5877 5879 5883 5887 5892 5895 5897 5900
5685 5687 5690 5692 5695 5698 5701 5704 5709 5714 5720 5726 5733 5741 5748 5755 5761 5769 5775 5782 5790 5797 5804 5809 5815 5824 5833 5840 5844 5850 5854 5859 5863 5864 5865 5868 5873 5875 5878 5881 5885 5890 5893 5895
5677 5680 5682 5685 5688 5692 5695 5698 5702 5706 5711 5717 5724 5731 5738 5745 5751 5759 5767 5774 5781 5789 5795 5802 5809 5816 5824 5831 5837 5843 5846 5851 5854 5857 5859 5863 5867 5870 5873 5874 5882 5884 5887 5889
5671 5673 5675 5677 5681 5685 5688 5692 5695 5699 5704 5709 5716 5722 5729 5736 5743 5751 5759 5767 5772 5781 5787 5795 5801 5809 5816 5823 5829 5834 5839 5844 5847 5851 5854 5857 5861 5864 5868 5871 5872 5877 5880 5883
5666 5667 5668 5670 5673 5677 5681 5685 5688 5692 5696 5703 5708 5714 5721 5728 5735 5744 5751 5759 5765 5772 5780 5787 5793 5801 5808 5815 5820 5826 5832 5836 5841 5846 5849 5853 5856 5859 5862 5864 5867 5870 5873 5874
5661 5662 5663 5665 5668 5670 5674 5677 5681 5686 5690 5696 5701 5707 5714 5722 5728 5736 5744 5751 5758 5766 5773 5780 5786 5794 5802 5807 5814 5819 5823 5828 5834 5840 5843 5846 5850 5853 5855 5858 5861 5863 5866 5868
5656 5657 5658 5660 5662 5665 5668 5671 5675 5680 5684 5689 5696 5701 5707 5714 5721 5729 5736 5743 5751 5760 5767 5774 5780 5788 5795 5800 5807 5812 5817 5822 5828 5832 5837 5841 5843 5846 5849 5851 5854 5856 5859 5860
5653 5653 5654 5655 5657 5659 5662 5666 5670 5674 5680 5684 5690 5695 5701 5708 5715 5723 5730 5737 5745 5753 5761 5768 5775 5781 5788 5793 5798 5803 5809 5815 5820 5825 5831 5835 5838 5840 5842 5844 5846 5849 5851 5853
5653 5653 5653 5653 5654 5655 5658 5661 5665 5669 5673 5680 5685 5690 5696 5703 5709 5717 5724 5731 5739 5748 5755 5762 5769 5774 5781 5786 5791 5796 5801 5807 5812 5818 5823 5827 5827 5833 5834 5837 5839 5840 5842 5844
5654 5653 5652 5652 5652 5653 5655 5657 5660 5664 5668 5674 5680 5685 5693 5698 5704 5711 5719 5727 5735 5743 5749 5755 5762 5769 5773 5779 5784 5789 5794 5799 5805 5810 5815 5819 5822 5825 5826 5828 5831 5832 5832 5834
5657 5654 5653 5652 5651 5650 5650 5651 5655 5659 5664 5669 5675 5682 5689 5694 5700 5706 5714 5721 5728 5736 5744 5751 5756 5761 5766 5770 5777 5783 5787 5792 5797 5802 5807 5811 5814 5815 5815 5819 5822 5823 5824 5824
5658 5656 5653 5651 5649 5647 5647 5648 5649 5653 5660 5665 5671 5678 5685 5691 5696 5702 5710 5716 5723 5732 5739 5744 5750 5754 5760 5766 5771 5776 5781 5786 5791 5795 5799 5803 5806 5808 5810 5813 5814 5814 5815 5816
5657 5656 5653 5651 5648 5644 5644 5646 5648 5651 5655 5662 5668 5675 5681 5687 5692 5698 5706 5713 5718 5726 5733 5739 5744 5750 5755 5760 5765 5770 5775 5780 5784 5788 5792 5795 5798 5801 5803 5804 5804 5804 5804 5804
5657 5656 5654 5652 5648 5645 5643 5647 5649 5651 5656 5661 5666 5672 5678 5684 5689 5695 5702 5708 5714 5721 5730 5735 5741 5747 5752 5756 5760 5764 5769 5773 5778 5781 5784 5788 5790 5792 5794 5795 5795 5795 5795 5794
5659 5657 5657 5655 5651 5649 5649 5649 5651 5654 5658 5662 5667 5671 5676 5681 5687 5692 5700 5705 5712 5717 5725 5731 5737 5743 5746 5750 5755 5759 5763 5767 5771 5775 5777 5780 5781 5783 5784 5784 5784 5784 5783 5783
5663 5662 5660 5659 5659 5656 5654 5654 5656 5658 5660 5663 5666 5670 5674 5679 5685 5690 5697 5703 5709 5715 5722 5728 5731 5738 5742 5747 5750 5752 5756 5761 5764 5767 5771 5771 5772 5773 5774 5773 5772 5772 5771 5770
5670 5666 5664 5664 5663 5662 5661 5661 5663 5665 5665 5664 5665 5668 5674 5678 5684 5689 5695 5700 5705 5711 5717 5724 5730 5736 5741 5745 5748 5750 5754 5758 5760 5761 5762 5763 5764 5765 5765 5764 5762 5760 5758 5757
5680 5674 5671 5668 5667 5666 5667 5668 5668 5669 5668 5669 5669 5672 5675 5679 5685 5689 5694 5699 5702 5707 5714 5722 5727 5732 5736 5740 5743 5746 5749 5751 5752 5753 5754 5755 5755 5756 5755 5754 5752 5750 5748 5746
5688 5681 5678 5675 5673 5672 5672 5673 5674 5673 5673 5670 5673 5676 5679 5683 5687 5690 5692 5697 5701 5707 5711 5717 5721 5726 5730 5735 5738 5741 5743 5745 5745 5746 5747 5747 5747 5746 5746 5744 5742 5740 5739 5737
5694 5690 5687 5684 5681 5679 5678 5677 5678 5678 5678 5678 5679 5681 5683 5686 5688 5691 5694 5697 5700 5703 5708 5714 5718 5723 5726 5730 5733 5736 5737 5738 5740 5741 5741 5740 5740 5739 5738 5736 5734 5732 5730 5726